Погода в Теси

Россия / Красноярский край     53°51′59″N   92°10′59″E
темп.,
°C
ветер,
м/с
пор.,
м/с
влажн.,
%
обл.,
%
осадки,
мм/ч
давл.,
гПа
погр.,
м
13 апреля, вт
вт1301:00+3ююв1294100 0.2 102536
04:00+1ююв1195100 0.0 102312
07:00+2зюз1192100 0.1 102319
10:00+4ссз4685100 0.8 1023745
13:00+2сз4896100 1.7 1025511
16:00+4ссз5770100 0.5 10251233
19:00+2ссз367592 0.5 1027250
22:00−1зсз238587 0.0 102954
14 апреля, ср
ср1401:00−1сз268869 0.1 1030357
04:00−1юз3794100 0.0 1029417
07:000зюз61175100 0.6 10301071
10:00+1зюз5882100 0.5 1030829
13:00+4з61061100 0.6 10271496
16:00+5зюз71160100 0.2 10251593
19:00+2зюз71481100 0.6 10231188
22:00+1зюз81486100 1.4 1022997
15 апреля, чт
чт1501:00+1зюз71389100 3.6 1022852
04:00+1з61294100 2.1 1023785
07:00+1зюз41098100 3.5 1025472
10:00+3зюз3892100 0.2 1026476
13:00+7зсз3568100 0.3 10251316
16:00+8ю1265100 0.1 10241066
19:00+5вюв3590100 0.1 1023182
22:00+2юв229741 0.0 102334
16 апреля, пт
пт1601:000ююв119770 0.0 102212
04:000ю119775 0.0 102216
07:00+2ююз279283 0.0 1021203
10:00+7юз497878 0.0 1019617
13:00+11зюз585896 0.1 10171768
16:00+13юз474925 0.0 10141870
19:00+10ю49715 0.0 1013239
22:00+5ю26898 0.0 1013100
17 апреля, сб
сб1701:00+4ююв22910 0.0 101223
04:00+3юв11920 0.0 101111
07:00+3юв1191100 0.0 101039
10:00+8юз3772100 0.0 1007513
13:00+12юз3858100 0.0 1004810
16:00+14зюз5115175 0.2 10022146
19:00+3сз6980100 0.4 1006466
22:00−1ссз4793100 0.6 1010437